Defiance, OH

3:41 PM EST on January 18, 2017 (GMT -0500)
Defiance Memorial

Weather History for KDFI - April, 2013

Change the Weather History Date:

Sunday, April 7, 2013

  Actual Average Record
Temperature  
Mean Temperature 57 °F -  
Max Temperature 64 °F 54 °F 79 °F (2001)
Min Temperature 46 °F 32 °F 4 °F (1982)
Degree Days  
Heating Degree Days 8    
Growing Degree Days 7 (Base 50)    
Moisture  
Dew Point 39 °F    
Average Humidity 52    
Maximum Humidity 69    
Minimum Humidity 38    
Precipitation  
Precipitation 0.01 in - - ()
Sea Level Pressure  
Sea Level Pressure 29.86 in    
Wind  
Wind Speed 13 mph (West)    
Max Wind Speed 17 mph    
Max Gust Speed 30 mph    
Visibility 10 miles    
Events Rain    
Averages and records for this station are not official NWS values.
T = Trace of Precipitation, MM = Missing Value Source: NWS Daily Summary

Daily Weather History Graph

Daily Weather History Graph

Search for Another Location

Airport or City:

Trip Planner

Search our weather history database for the weather conditions in past years. The results will help you decide how hot, cold, wet, or windy it might be!

Date:

Astronomy

Apr. 07, 2013 Rise Set
Actual Time 7:10 AM EDT 8:09 PM EDT
Civil Twilight 6:42 AM EDT 8:37 PM EDT
Nautical Twilight 6:08 AM EDT 9:11 PM EDT
Astronomical Twilight 5:33 AM EDT 9:46 PM EDT
Moon 5:29 AM EDT (4/7) 5:39 PM EDT (4/7)
Length of Visible Light 13h 55m
Length of Day
12h 59m
Waning Crescent, 8% of the Moon is Illuminated
Apr 7
Waning Crescent
Apr 10
New
Apr 18
First Quarter
Apr 25
Full
May 2
Last Quarter

Hourly Weather History & Observations

Time (EDT) Temp. Dew Point Humidity Pressure Visibility Wind Dir Wind Speed Gust Speed Precip Events Conditions
12:53 AM 61.0 °F 35.1 °F 38% 29.77 in 10.0 mi SSW 17.3 mph 26.5 mph N/A   Overcast
1:53 AM 60.1 °F 36.0 °F 41% 29.74 in 10.0 mi South 15.0 mph 24.2 mph N/A   Mostly Cloudy
2:53 AM 59.0 °F 36.0 °F 42% 29.71 in 10.0 mi South 17.3 mph 25.3 mph N/A   Scattered Clouds
3:53 AM 57.9 °F 42.1 °F 56% 29.73 in 10.0 mi SW 15.0 mph 25.3 mph 0.01 in Rain Light Rain
4:53 AM 57.0 °F 39.9 °F 53% 29.69 in 10.0 mi SSW 15.0 mph - 0.00 in   Mostly Cloudy
5:53 AM 57.0 °F 39.0 °F 51% 29.70 in 10.0 mi SSW 17.3 mph 23.0 mph N/A   Partly Cloudy
6:53 AM 59.0 °F 41.0 °F 51% 29.72 in 10.0 mi SW 17.3 mph 29.9 mph N/A   Clear
7:53 AM 57.0 °F 44.1 °F 62% 29.77 in 10.0 mi West 13.8 mph 24.2 mph N/A   Clear
8:53 AM 55.0 °F 45.0 °F 69% 29.80 in 10.0 mi WSW 11.5 mph 27.6 mph N/A   Partly Cloudy
9:20 AM 55.4 °F 44.6 °F 67% 29.82 in 10.0 mi West 9.2 mph 23.0 mph N/A   Mostly Cloudy
9:53 AM 54.0 °F 44.1 °F 69% 29.83 in 10.0 mi West 9.2 mph 21.9 mph N/A   Overcast
10:53 AM 54.0 °F 42.1 °F 64% 29.85 in 10.0 mi West 12.7 mph 21.9 mph N/A   Scattered Clouds
11:33 AM 57.2 °F 42.8 °F 59% 29.87 in 9.0 mi WSW 11.5 mph 24.2 mph N/A   Mostly Cloudy
11:53 AM 57.0 °F 42.1 °F 57% 29.88 in 9.0 mi West 10.4 mph 23.0 mph N/A   Mostly Cloudy
12:24 PM 57.2 °F 41.0 °F 55% 29.88 in 10.0 mi West 9.2 mph 23.0 mph N/A   Mostly Cloudy
12:53 PM 59.0 °F 41.0 °F 51% 29.89 in 10.0 mi West 10.4 mph 19.6 mph N/A   Partly Cloudy
1:53 PM 59.0 °F 42.1 °F 53% 29.91 in 10.0 mi WNW 11.5 mph 23.0 mph N/A   Partly Cloudy
2:53 PM 63.0 °F 39.9 °F 43% 29.91 in 10.0 mi WNW 11.5 mph 16.1 mph N/A   Partly Cloudy
3:53 PM 64.0 °F 39.0 °F 40% 29.92 in 10.0 mi Variable 6.9 mph 19.6 mph N/A   Clear
4:53 PM 64.0 °F 37.9 °F 38% 29.93 in 10.0 mi NW 11.5 mph 19.6 mph N/A   Clear
5:53 PM 63.0 °F 37.0 °F 38% 29.95 in 10.0 mi WNW 6.9 mph - N/A   Clear
6:53 PM 61.0 °F 36.0 °F 39% 29.96 in 10.0 mi NW 8.1 mph - N/A   Clear
7:53 PM 57.9 °F 35.1 °F 42% 29.97 in 10.0 mi NNW 5.8 mph - N/A   Clear
8:53 PM 54.0 °F 34.0 °F 47% 29.98 in 10.0 mi NNE 3.5 mph - N/A   Clear
9:53 PM 50.0 °F 34.0 °F 54% 30.00 in 10.0 mi NNE 4.6 mph - N/A   Clear
10:53 PM 50.0 °F 34.0 °F 54% 30.01 in 10.0 mi ENE 3.5 mph - N/A   Clear
11:53 PM 46.9 °F 33.1 °F 59% 30.01 in 10.0 mi NE 3.5 mph - N/A   Clear